Kendall, FL

9:58 PM EDT on April 30, 2017 (GMT -0400)
Kendall-Tamiami Executive

Weather History for KTMB - March, 2014

Change the Weather History Date:

Monday, March 24, 2014

  Actual Average Record
Temperature  
Mean Temperature 76 °F -  
Max Temperature 84 °F 81 °F 89 °F (2011)
Min Temperature 69 °F 60 °F 53 °F (2001)
Cooling Degree Days 10    
Growing Degree Days 26 (Base 50)    
Moisture  
Dew Point 65 °F    
Average Humidity 74    
Maximum Humidity 96    
Minimum Humidity 41    
Precipitation  
Precipitation 0.00 in - - ()
Sea Level Pressure  
Sea Level Pressure 29.99 in    
Wind  
Wind Speed 7 mph (North)    
Max Wind Speed 12 mph    
Max Gust Speed -    
Visibility 8 miles    
Events      
Averages and records for this station are not official NWS values.
T = Trace of Precipitation, MM = Missing Value Source: NWS Daily Summary

Daily Weather History Graph

Daily Weather History Graph

Search for Another Location

Airport or City:

Trip Planner

Search our weather history database for the weather conditions in past years. The results will help you decide how hot, cold, wet, or windy it might be!

Date:

Astronomy

Mar. 24, 2014 Rise Set
Actual Time 7:21 AM EDT 7:34 PM EDT
Civil Twilight 6:58 AM EDT 7:57 PM EDT
Nautical Twilight 6:31 AM EDT 8:24 PM EDT
Astronomical Twilight 6:04 AM EDT 8:51 PM EDT
Moon 2:17 AM EDT (3/24) 1:30 PM EDT (3/24)
Length of Visible Light 12h 59m
Length of Day
12h 13m
Last Quarter, 43% of the Moon is Illuminated
Mar 24
Last Quarter
Mar 30
New
Apr 7
First Quarter
Apr 15
Full
Apr 22
Last Quarter

Hourly Weather History & Observations

Time (EDT) Temp. Heat Index Dew Point Humidity Pressure Visibility Wind Dir Wind Speed Gust Speed Precip Events Conditions
12:53 AM 72.0 °F - 69.1 °F 91% 30.03 in 6.0 mi West 6.9 mph - N/A   Clear
1:53 AM 70.0 °F - 68.0 °F 93% 30.01 in 5.0 mi Calm Calm - N/A   Clear
2:53 AM 69.1 °F - 66.9 °F 93% 30.01 in 5.0 mi WNW 4.6 mph - N/A   Clear
3:21 AM 69.1 °F - 68.0 °F 96% 30.00 in 2.0 mi West 4.6 mph - N/A   Clear
3:44 AM 69.1 °F - 66.9 °F 93% 30.00 in 1.5 mi West 5.8 mph - N/A   Partly Cloudy
3:53 AM 69.1 °F - 68.0 °F 96% 29.99 in 1.0 mi WNW 4.6 mph - N/A   Mist
4:01 AM 69.1 °F - 68.0 °F 96% 29.99 in 2.0 mi NW 5.8 mph - N/A   Partly Cloudy
4:09 AM 69.1 °F - 68.0 °F 96% 29.99 in 4.0 mi NW 5.8 mph - N/A   Partly Cloudy
4:53 AM 72.0 °F - 70.0 °F 93% 29.99 in 8.0 mi NW 10.4 mph - N/A   Clear
5:53 AM 72.0 °F - 69.1 °F 91% 30.00 in 8.0 mi NNW 8.1 mph - N/A   Clear
6:53 AM 72.0 °F - 69.1 °F 91% 30.01 in 10.0 mi North 8.1 mph - N/A   Overcast
7:39 AM 72.0 °F - 68.0 °F 87% 30.02 in 10.0 mi North 11.5 mph - N/A   Mostly Cloudy
7:53 AM 72.0 °F - 68.0 °F 87% 30.03 in 10.0 mi North 10.4 mph - N/A   Mostly Cloudy
8:53 AM 72.0 °F - 66.9 °F 84% 30.05 in 10.0 mi North 10.4 mph - N/A   Mostly Cloudy
9:53 AM 73.9 °F - 66.0 °F 76% 30.05 in 10.0 mi North 5.8 mph - N/A   Partly Cloudy
10:53 AM 79.0 °F - 64.9 °F 62% 30.04 in 10.0 mi North 10.4 mph - N/A   Clear
11:53 AM 79.0 °F - 64.9 °F 62% 30.05 in 10.0 mi NNW 11.5 mph - N/A   Overcast
12:53 PM 81.0 °F 82.2 °F 63.0 °F 54% 30.03 in 10.0 mi NNE 9.2 mph - N/A   Mostly Cloudy
1:53 PM 82.0 °F 82.1 °F 59.0 °F 45% 30.01 in 10.0 mi North 8.1 mph - N/A   Mostly Cloudy
2:53 PM 82.9 °F 82.6 °F 57.9 °F 42% 29.97 in 10.0 mi North 11.5 mph - N/A   Partly Cloudy
3:53 PM 82.9 °F 82.6 °F 57.9 °F 42% 29.94 in 10.0 mi North 9.2 mph - N/A   Clear
4:53 PM 82.9 °F 82.4 °F 57.0 °F 41% 29.92 in 10.0 mi Calm Calm - N/A   Clear
5:53 PM 82.0 °F 82.4 °F 60.1 °F 47% 29.92 in 10.0 mi ENE 6.9 mph - N/A   Clear
6:53 PM 80.1 °F 80.7 °F 59.0 °F 48% 29.93 in 10.0 mi NNE 6.9 mph - N/A   Mostly Cloudy
7:53 PM 75.9 °F - 62.1 °F 62% 29.94 in 10.0 mi NE 11.5 mph - N/A   Mostly Cloudy
8:53 PM 73.9 °F - 64.0 °F 71% 29.96 in 10.0 mi NE 10.4 mph - N/A   Mostly Cloudy
9:53 PM 73.0 °F - 62.1 °F 68% 29.98 in 10.0 mi NNE 10.4 mph - N/A   Mostly Cloudy
10:53 PM 73.0 °F - 63.0 °F 71% 29.99 in 10.0 mi NNE 8.1 mph - N/A   Overcast
11:53 PM 73.9 °F - 63.0 °F 68% 29.98 in 10.0 mi NE 10.4 mph - N/A   Overcast